Location: Newark
(40.3500°N, 15.2333°E)
Time: 04:38:39
(UTC+00:00)

NOAA 15 - Pass Details

Date: 26 February 2020
Orbit: 797 x 813 km, 98.7° (Epoch: 04 April)

Event Time Altitude Azimuth Distance (km) Brightness Sun altitude
Rises 19:12:52 0° 222° (SW) 3,323 8.2 -28.5°
Reaches altitude 10° 19:17:56 10° 264° (W) 2,402 7.9 -29.4°
Maximum altitude 19:18:35 10° 272° (W) 2,388 7.9 -29.5°
Drops below altitude 10° 19:19:14 10° 279° (W) 2,404 8.0 -29.7°
Sets 19:24:21 0° 321° (NW) 3,344 8.6 -30.6°
